THOR ABLESTAR DEB, 549

Orbit data source: Space-Track

THOR ABLESTAR DEB, 549 is space debris in LEO originally from a launch on Thu, 29 Jun 1961 UTC launched from the Air Force Eastern Test Range (AFETR). Debris objects in space refer to the collection of defunct objects orbiting the Earth. Examples of debris include non-operational satellites, rocket bodies, and fragments generated from explosions, collisions, or faulty payload assembly.

Loading next visibility...
Identifier
549, 1961-015GJ
Orbit
LEO
Country
Flag of USUS
Related business
Manufacturer
Unknown
Mission
Spacecraft
Bus & Motor
Unknown
Mass
Unknown
Launch date (UTC)
1961-06-29 (64 years ago)
Launch vehicle
Unknown
Launch site
Air Force Eastern Test Range (AFETR)
Object type
Payload
Rocket body
Debris
Shape & HBR
Unknown
Radar Cross Section
Small (<0.1 m²)

Expand to show TLE details & history
Last TLE update: 10 hours ago

TLE from 10 hours ago
0 THOR ABLESTAR DEB
1 00549U 61015GJ  25261.14480642  .00000106  00000-0  29550-3 0  9997
2 00549  66.6936 144.0168 0210171 138.1356  17.0725 13.36367238126563
Epoch: 2025-09-18T03:28Z
TLE epoch observation values (Epoch: 2025-09-18T03:28:31.274Z)
Latitude
22.02435°
Longitude
-95.4072°
Altitude
974.22 km
Speed
7.44 km/s
True Right ascension
20h 56m 08s
True Declination
21° 54' 31"
Sunlit
Object was in full shadow at epoch
Visualization orbit readout
Latitude
Unknown
Longitude
Unknown
Altitude
Unknown
Speed
Unknown
Apparent Right ascension
Unknown
Apparent Declination
Unknown
Sunlit
N/A
Visualization observer readout
Local Sidereal Time
06:13:17
Azimuth
Unknown
Elevation
Unknown
Doppler factor
Unknown
Orbital elements
Apogee altitude
1,278.905 km
Perigee altitude
963.673 km
Semi-major axis
7,499.426 km
Eccentricity
0.02102
Inclination
66.6936°
RAAN
144.0168°
Arg. of periapsis
138.1356°
True anomaly
17.79773°
Mean anomaly
17.0725°
Eccentric anomaly
17.43327°
Mean motion
3.34196 °/min
Orbital period
107.72 mins
BSTAR
0.0002955
Loading maneuver chart data...
Computing Atmospheric mass density...

Documentation

Showing up to 5 results
|